Regional Weather Roundup
Issued by NWS Newport/Morehead, NC

Current Version | Previous Version | Graphics & Text | Print | Product List | Glossary On
Versions: 1 2 3 4 5 6 7 8 9 10 11 12 13 14 15 16 17 18 19 20 21 22 23 24 25 26 27 28 29 30 31 32 33 34 35 36 37 38 39 40 41 42 43 44 45 46 47 48 49 50
000 ASUS42 KMHX 041324 RWRMHX WEATHER ROUNDUP FOR EASTERN NORTH CAROLINA NATIONAL WEATHER SERVICE NEWPORT/MOREHEAD CITY NC 800 AM EST WED MAR 04 2015 NOTE: "FAIR" INDICATES FEW OR NO CLOUDS BELOW 12,000 FEET WITH NO SIGNIFICANT WEATHER AND/OR OBSTRUCTIONS TO VISIBILITY NCZ015>017-031-032-045>047-102-103-041400- NORTH COAST CITY SKY/WX TMP DP RH WIND PRES REMARKS EDENTON CLOUDY 52 52 100 SW9 30.02R FOG ELIZABETH CITY FOG 53 52 96 SW10 30.01R VSB 3/4 KITTY HAWK CLOUDY 60 60 100 SW8 30.01R FOG MANTEO CLOUDY 57 57 100 SW13 30.02R $$ NCZ045>047-081-094-103-104-041400- CENTRAL COAST CITY SKY/WX TMP DP RH WIND PRES REMARKS FRISCO FOG 54 54 100 W13 30.06R VSB 1/4 SWANQUARTER N/A 52 N/A N/A S10 30.00R $$ NCZ095-097-098-100-101-041400- SOUTHERN COAST CITY SKY/WX TMP DP RH WIND PRES REMARKS BEAUFORT FOG 54 54 100 SW10 30.09R VSB 1/4 CEDAR ISLAND N/A 61 N/A N/A SW16G24 30.09S JACKSONVILLE MOSUNNY 66 63 90 SW10G21 30.07R PINEY ISLAND N/A N/A N/A N/A MISG 30.05 WILMINGTON CLOUDY 63 62 97 SW13G22 30.09R $$ NCZ011>013-027>030-043-044-078>080-089-090>093-098-041400- COASTAL PLAIN CITY SKY/WX TMP DP RH WIND PRES REMARKS AHOSKIE CLOUDY 50 49 98 SW6 29.99S FOG CLINTON FOG 47 47 100 CALM 30.06R VSB 1/4 ELIZABETHTOWN CLOUDY 59 59 100 S9G16 30.07R FOG GOLDSBORO FOG 52 52 100 SW13 30.02R VSB 1/2 GREENVILLE FOG 52 52 100 SW8 30.04R VSB 1/2 HAVELOCK CLOUDY 63 61 93 SW20G28 30.07R KENANSVILLE CLOUDY 58 57 98 CALM 30.05S KINSTON FOG 54 54 100 SW9 30.04S VSB 1/4 NEW BERN PTSUNNY 67 63 87 SW15G23 30.05R RICHLANDS MOSUNNY 63 61 94 SW16G25 30.07S ROCKY MOUNT FOG 47 47 100 SW10 30.02R VSB 1/4 WASHINGTON CLOUDY 56 56 97 W10G16 30.03R FOG WHITEVILLE CLOUDY 59 58 97 SW8 30.08R FOG $$ AMZ130-135-150-152-154-156-158-170-250-252-270-ANZ085-086-088-633-658-670-041400- MARINE OBSERVATIONS STATION/POSITION TIME TEMP WIND PRES WAVE SWELL AIR SEA DIR/SP/G HT/PER HT/PER (UTC) (F) (DEG/KT/KT) (MB) (FT/S) (FT/S) CHESAPEAKE LIGHT 1300 45 220/ 27/ 28 1014.1 64 E VA BEACH 1250 54 55 220/ 16/ 17 1015.4 6/ 7 3/16 DUCK 1300 51 35 240/ 13/ 15 1015.4 2 E DUCK 1211 35 N/A 4/ 7 2/11 10 NE DUCK 1222 37 N/A 5/ 8 2/11 OREGON INLET 1300 50 44 200/ 15/ 18 1016.9 HATTERAS CG 1300 56 45 230/ 10/ 15 1018.0 CAPE LOOKOUT 1300 57 230/ 8/ 11 1018.6 BEAUFORT LAB 1300 54 44 240/ 5/ 12 1017.9 27 SE WRIGHTSVLE NOT AVBL 5 SE WRIGHTSVLE NOT AVBL 225 S CAPE HAT 1250 72 73 210/ 17/ 19 1023.4 6/10 3/10 41 SE CHARLESTON 1250 67 68 230/ 12/ 12 1020.0 5/ 6 5/ 6 $$

USA.gov is the U.S. government's official web portal to all federal, state and local government web resources and services.